This demonstration page uses our WeatherBlox Daily Observations layout. Learn more.

Left ArrowRight Arrow

Hourly Observations for September 9, 2020

Temp ( °F °C ) Dew Point ( °F °C ) Humidity (%) Winds ( mph kmh ) Pressure ( in mb ) Visibility ( mi km ) Precip ( " mm )
12:40 am 00:40 Cloudy 56 13.3 52 11.1 87 87 N 20 31 29.99 1016 10 16 0.01 0.25
12:53 am 00:53 Cloudy 55 12.8 52 11.1 90 90 N 20 31 29.91 1013 10 16 0.01 0.25
1:53 am 01:53 Cloudy 54 12.2 49 9.4 83 83 N 23 37 29.92 1013 10 16 0.00 0.00
2:16 am 02:16 Cloudy 52 11.1 48 8.9 86 86 NNE 20 31 30.02 1017 10 16 0.00 0.00
2:40 am 02:40 Cloudy 52 11.1 47 8.3 83 83 NNE 29 46 30.01 1016 10 16 0.00 0.00
2:53 am 02:53 Cloudy 51 10.6 46 7.8 83 83 NNE 21 33 29.90 1012 10 16 0.00 0.00
3:32 am 03:32 Cloudy 50 10 45 7.2 83 83 NNE 23 37 30.00 1016 10 16 0.00 0.00
3:53 am 03:53 Cloudy 50 10 46 7.8 86 86 N 21 33 29.90 1013 10 16 0.00 0.00
4:53 am 04:53 Cloudy 49 9.4 44 6.7 83 83 N 17 28 29.90 1013 10 16 0.00 0.00
5:53 am 05:53 Cloudy 49 9.4 44 6.7 83 83 N 16 26 29.93 1014 9 14 0.00 0.00
6:44 am 06:44 Cloudy with Light Rain 47 8.3 45 7.2 93 93 N 16 26 30.09 1019 3 4 0.00 0.00
6:53 am 06:53 Cloudy with Light Rain 47 8.3 45 7.2 93 93 N 15 24 30.02 1017 3 4 0.00 0.00
6:58 am 06:58 Cloudy with Light Rain 47 8.3 45 7.2 93 93 N 13 20 30.10 1019 3 5 0.00 0.00
7:24 am 07:24 Cloudy with Mist and Fog 47 8.3 45 7.2 93 93 N 15 24 30.12 1020 4 6 0.01 0.25
7:45 am 07:45 Cloudy with Mist and Fog 47 8.3 45 7.2 93 93 N 15 24 30.13 1020 4 6 0.01 0.25
7:53 am 07:53 Cloudy with Mist and Fog 47 8.3 45 7.2 93 93 N 14 22 30.07 1018 4 6 0.01 0.25
8:11 am 08:11 Cloudy with Mist and Fog 47 8.3 45 7.2 93 93 N 14 22 30.15 1021 3 5 0.00 0.00
8:26 am 08:26 Cloudy with Mist and Fog 47 8.3 45 7.2 93 93 N 12 19 30.15 1021 3 4 0.00 0.00
8:28 am 08:28 Cloudy with Mist and Fog 47 8.3 46 7.8 97 97 N 17 28 30.15 1021 3 4 0.00 0.00
8:35 am 08:35 Cloudy with Mist and Fog 47 8.3 45 7.2 93 93 N 18 30 30.16 1021 3 5 0.00 0.00
8:43 am 08:43 Cloudy with Mist and Fog 47 8.3 45 7.2 93 93 N 14 22 30.17 1022 4 6 0.00 0.00
8:53 am 08:53 Cloudy with Mist and Fog 47 8.3 45 7.2 93 93 N 17 28 30.10 1019 4 6 0.00 0.00
9:03 am 09:03 Cloudy 47 8.3 45 7.2 93 93 N 14 22 30.17 1022 9 14 0.00 0.00
9:10 am 09:10 Cloudy 47 8.3 45 7.2 93 93 N 16 26 30.17 1022 9 14 0.00 0.00
9:53 am 09:53 Cloudy 48 8.9 45 7.2 89 89 N 16 26 30.11 1020 10 16 0.00 0.00
10:05 am 10:05 Cloudy 48 8.9 45 7.2 89 89 N 14 22 30.17 1022 10 16 0.00 0.00
10:51 am 10:51 Cloudy 48 9 45 7 87 87 N 20 31 30.19 1022 10 16 0.00 0.00
10:53 am 10:53 Cloudy 49 9.4 43 6.1 80 80 N 17 28 30.14 1021 10 16 0.00 0.00
11:00 am 11:00 Cloudy 49 9.4 43 6.1 80 80 NNE 15 24 30.20 1023 10 16 0.00 0.00
11:53 am 11:53 Cloudy 49 9.4 44 6.7 83 83 NNE 16 26 30.16 1021 10 16 0.00 0.00
12:53 pm 12:53 Cloudy 51 10.6 43 6.1 74 74 NNE 16 26 30.16 1021 10 16 0.00 0.00
1:53 pm 13:53 Cloudy 52 11.1 44 6.7 75 75 N 13 20 30.15 1021 10 16 0.00 0.00
2:53 pm 14:53 Cloudy 54 12.2 44 6.7 69 69 NNE 14 22 30.14 1021 10 16 0.00 0.00
3:53 pm 15:53 Cloudy 53 11.7 45 7.2 74 74 N 15 24 30.13 1020 10 16 0.00 0.00
4:53 pm 16:53 Cloudy 54 12.2 45 7.2 72 72 N 14 22 30.13 1020 10 16 0.00 0.00
5:53 pm 17:53 Cloudy 53 11.7 45 7.2 74 74 N 13 20 30.15 1021 10 16 0.00 0.00
6:53 pm 18:53 Cloudy 52 11.1 45 7.2 77 77 NNE 14 22 30.18 1022 10 16 0.00 0.00
7:53 pm 19:53 Cloudy 52 11.1 44 6.7 75 75 NE 12 19 30.20 1023 10 16 0.00 0.00
8:53 pm 20:53 Cloudy 51 10.6 44 6.7 77 77 NNE 13 20 30.22 1024 10 16 0.00 0.00
9:53 pm 21:53 Cloudy 51 10.6 44 6.7 77 77 NNE 9 15 30.25 1025 10 16 0.00 0.00
10:53 pm 22:53 Cloudy 50 10 43 6.1 77 77 NE 10 17 30.26 1025 10 16 0.00 0.00
11:53 pm 23:53 Cloudy 50 10 43 6.1 77 77 NNE 12 19 30.27 1025 10 16 0.00 0.00

Powered by AerisWeather